Location: Killam
(52.7910°N, 111.8608°W)
Time: 06:03:59
(UTC+00:00)

A-11 Canister half - Pass Details

Date: 21 February 2026
Orbit: 1524 x 1683 km, 47.3° (Epoch: 13 March)

Event Time Altitude Azimuth Distance (km) Brightness Sun altitude
Rises 04:21:43 0° 281° (WNW) 4,683 12.6 -32.0°
Reaches altitude 10° 04:24:56 10° 275° (W) 3,695 11.7 -32.4°
Maximum altitude 04:33:29 44° 208° (SSW) 2,025 9.5 -33.5°
Enters shadow 04:34:24 43° 194° (SSW) 2,054 9.4 -33.6°
Drops below altitude 10° 04:42:07 10° 141° (SE) 3,724 - -34.6°
Sets 04:45:22 0° 135° (SE) 4,723 - -35.0°
